User: anonymous   Login
Location: Bonac
(42.8765°N, 0.9753°E)
Time: 10:51:08
(UTC+00:00)
Language:

BREEZE-M DEB (TANK) - Orbit

View from above orbital plane
View from above orbital plane
View from above satellite
View from above satellite

Ground track
Ground track

The orbit is defined by the following mean orbital elements,

1 36501U          26063.05866669 +.00000000 +00000-0 +13339-2 0 00002
2 36501  49.6494 289.6082 4796029  81.2454 328.3211  5.96537433    04
Epoch (UTC): 04 March 2026 01:24:28
Eccentricity: 0.4796029
inclination: 49.6494°
perigee height: 305 km
apogee height: 12623 km
right ascension of ascending node: 289.6082°
argument of perigee: 81.2454°
revolutions per day: 5.96537433
mean anomaly at epoch: 328.3211°

The dashed part of the orbit path shows where the satellite is in the earth's shadow,  

DLR